| time (UTC) | temp C | wind direction | speed KPH | gust KPH | rain 1hr cm | rain 24hr cm | rain mn cm | humidity % | barometer mb |
| 20260504183115 | 22 | 157 | 1.6 | 16.1 | 0.00 | 0.03 | 0.00 | 59 | 1007.7 |
| 20260504181540 | 22 | 207 | 6.4 | 16.1 | 0.00 | 0.03 | 0.00 | 57 | 1007.6 |
| 20260504180002 | 22 | 186 | 6.4 | 16.1 | 0.00 | 0.03 | 0.00 | 57 | 1007.3 |
| 20260504174518 | 22 | 153 | 3.2 | 16.1 | 0.00 | 0.03 | 0.00 | 59 | 1007.2 |
| 20260504173115 | 22 | 148 | 4.8 | 14.5 | 0.00 | 0.03 | 0.00 | 58 | 1007.3 |
| 20260504171530 | 21 | 171 | 4.8 | 14.5 | 0.00 | 0.03 | 0.00 | 59 | 1007.4 |
| 20260504170123 | 21 | 142 | 4.8 | 17.7 | 0.00 | 0.03 | 0.00 | 59 | 1007.6 |
| 20260504120131 | 11 | 194 | 0.0 | 6.4 | 0.00 | 0.03 | 0.00 | 75 | 1010.2 |
| 20260504081543 | 10 | 182 | 0.0 | 3.2 | 0.00 | 0.03 | 0.00 | 74 | 1011.1 |
| 20260504050017 | 8 | 284 | 0.0 | 0.0 | 0.00 | 0.03 | 0.00 | 87 | 1012.9 |
| 20260504044519 | 8 | 284 | 0.0 | 0.0 | 0.00 | 0.03 | 0.00 | 85 | 1013.0 |
| 20260504043016 | 8 | 284 | 0.0 | 0.0 | 0.00 | 0.03 | 0.00 | 85 | 1013.1 |
| 20260504041510 | 9 | 284 | 0.0 | 0.0 | 0.00 | 0.03 | 0.00 | 84 | 1013.3 |
| 20260504040008 | 9 | 284 | 0.0 | 0.0 | 0.00 | 0.03 | 0.03 | 84 | 1013.5 |
| 20260504034509 | 9 | 284 | 0.0 | 0.0 | 0.00 | 0.03 | 0.03 | 84 | 1013.6 |
| 20260504033006 | 9 | 284 | 0.0 | 0.0 | 0.00 | 0.03 | 0.03 | 84 | 1013.8 |
| 20260504031510 | 9 | 284 | 0.0 | 0.0 | 0.00 | 0.03 | 0.03 | 84 | 1014.0 |
| 20260504030003 | 9 | 284 | 0.0 | 0.0 | 0.00 | 0.03 | 0.03 | 85 | 1014.2 |
| 20260504024502 | 9 | 284 | 0.0 | 0.0 | 0.00 | 0.03 | 0.03 | 83 | 1014.4 |
| 20260504023004 | 9 | 284 | 0.0 | 0.0 | 0.00 | 0.03 | 0.03 | 83 | 1014.5 |
| 20260504021504 | 9 | 284 | 0.0 | 0.0 | 0.00 | 0.03 | 0.03 | 84 | 1014.4 |
| 20260504020003 | 8 | 284 | 0.0 | 0.0 | 0.00 | 0.03 | 0.03 | 85 | 1014.3 |
| 20260504014502 | 8 | 284 | 0.0 | 0.0 | 0.00 | 0.03 | 0.03 | 85 | 1014.3 |
| 20260504013100 | 8 | 284 | 0.0 | 0.0 | 0.00 | 0.03 | 0.03 | 85 | 1014.4 |
| 20260504011602 | 8 | 284 | 0.0 | 3.2 | 0.00 | 0.03 | 0.03 | 86 | 1014.3 |
| 20260504004559 | 8 | 304 | 0.0 | 1.6 | 0.00 | 0.03 | 0.03 | 87 | 1014.5 |
| 20260504003106 | 8 | 304 | 0.0 | 1.6 | 0.00 | 0.03 | 0.03 | 87 | 1014.4 |
| 20260504001602 | 8 | 304 | 0.0 | 0.0 | 0.00 | 0.03 | 0.03 | 88 | 1014.4 |
| 20260503234557 | 8 | 304 | 0.0 | 0.0 | 0.00 | 0.03 | 0.03 | 87 | 1014.6 |
| 20260503233058 | 8 | 304 | 0.0 | 0.0 | 0.00 | 0.03 | 0.03 | 88 | 1014.3 |
| 20260503231555 | 8 | 303 | 0.0 | 1.6 | 0.00 | 0.03 | 0.03 | 87 | 1014.3 |
| 20260503230109 | 8 | 303 | 0.0 | 3.2 | 0.00 | 0.03 | 0.03 | 88 | 1014.7 |
| 20260503224556 | 8 | 302 | 0.0 | 0.0 | 0.00 | 0.03 | 0.03 | 89 | 1014.9 |
| 20260503223102 | 8 | 302 | 0.0 | 0.0 | 0.03 | 0.03 | 0.03 | 90 | 1015.5 |
| 20260503221512 | 8 | 302 | 0.0 | 0.0 | 0.03 | 0.03 | 0.03 | 89 | 1015.9 |
| 20260503220035 | 8 | 302 | 0.0 | 0.0 | 0.03 | 0.03 | 0.03 | 87 | 1016.2 |
| 20260503214559 | 9 | 302 | 0.0 | 1.6 | 0.03 | 0.03 | 0.03 | 82 | 1016.8 |
| 20260503213057 | 10 | 161 | 4.8 | 9.7 | 0.00 | 0.00 | 0.00 | 75 | 1017.4 |
| 20260503211554 | 11 | 261 | 3.2 | 16.1 | 0.00 | 0.00 | 0.00 | 69 | 1017.2 |
| 20260503210054 | 13 | 161 | 3.2 | 20.9 | 0.00 | 0.00 | 0.00 | 55 | 1016.8 |
| 20260503204534 | 14 | 115 | 6.4 | 14.5 | 0.00 | 0.00 | 0.00 | 46 | 1016.3 |
| 20260503203028 | 14 | 233 | 1.6 | 6.4 | 0.00 | 0.00 | 0.00 | 44 | 1016.4 |
| 20260503201528 | 15 | 240 | 1.6 | 12.9 | 0.00 | 0.00 | 0.00 | 43 | 1016.7 |
| 20260503200028 | 15 | 333 | 3.2 | 9.7 | 0.00 | 0.00 | 0.00 | 43 | 1016.5 |
| 20260503194624 | 16 | 299 | 3.2 | 8.0 | 0.00 | 0.00 | 0.00 | 41 | 1016.5 |
| 20260503193012 | 16 | 271 | 1.6 | 11.3 | 0.00 | 0.00 | 0.00 | 44 | 1016.7 |
| 20260503191510 | 16 | 339 | 3.2 | 16.1 | 0.00 | 0.00 | 0.00 | 41 | 1016.7 |
| 20260503190015 | 16 | 150 | 3.2 | 16.1 | 0.00 | 0.00 | 0.00 | 40 | 1017.1 |